Fort Leonard Wood, MO

10:36 AM CST on January 20, 2017 (GMT -0600)
Waynesville Regional At Forney Field

Weather History for KTBN - January, 2012

Change the Weather History Date:

Wednesday, January 11, 2012

  Actual Average Record
Temperature  
Mean Temperature 46 °F -  
Max Temperature 57 °F 39 °F 71 °F (2017)
Min Temperature 30 °F 26 °F 0 °F (1997)
Degree Days  
Heating Degree Days 20    
Moisture  
Dew Point 35 °F    
Average Humidity 82    
Maximum Humidity 100    
Minimum Humidity 24    
Precipitation  
Precipitation 0.02 in - - ()
Sea Level Pressure  
Sea Level Pressure 29.66 in    
Wind  
Wind Speed 4 mph (WNW)    
Max Wind Speed 20 mph    
Max Gust Speed 28 mph    
Visibility 10 miles    
Events Rain    
Averages and records for this station are not official NWS values.
T = Trace of Precipitation, MM = Missing Value Source: NWS Daily Summary

Daily Weather History Graph

Daily Weather History Graph

Search for Another Location

Airport or City:

Trip Planner

Search our weather history database for the weather conditions in past years. The results will help you decide how hot, cold, wet, or windy it might be!

Date:

Astronomy

Jan. 11, 2012 Rise Set
Actual Time 7:23 AM CST 5:09 PM CST
Civil Twilight 6:54 AM CST 5:38 PM CST
Nautical Twilight 6:22 AM CST 6:10 PM CST
Astronomical Twilight 5:50 AM CST 6:42 PM CST
Moon 8:04 PM CST (1/11) 8:39 AM CST (1/11)
Length of Visible Light 10h 43m
Length of Day
9h 45m
Waning Gibbous, 93% of the Moon is Illuminated
Jan 11
Waning Gibbous
Jan 16
Last Quarter
Jan 23
New
Jan 30
First Quarter
Feb 7
Full

Hourly Weather History & Observations

Time (CST) Temp. Windchill Dew Point Humidity Pressure Visibility Wind Dir Wind Speed Gust Speed Precip Events Conditions
12:01 AM 39.2 °F 37.0 °F 39.2 °F 100% 29.70 in 10.0 mi NW 3.5 mph - N/A Rain Light Rain
12:48 AM 39.2 °F - 39.2 °F 100% 29.69 in 10.0 mi Calm Calm - N/A   Overcast
12:55 AM 39.4 °F 37.2 °F 39.0 °F 99% 29.69 in 10.0 mi East 3.5 mph - 0.00 in   Overcast
1:36 AM 39.2 °F 37.0 °F 39.2 °F 100% 29.69 in 10.0 mi SSE 3.5 mph - N/A   Light Drizzle
1:39 AM 39.2 °F - 39.2 °F 100% 29.69 in 9.0 mi Calm Calm - N/A   Light Drizzle
1:52 AM 39.2 °F - 39.2 °F 100% 29.69 in 9.0 mi Calm Calm - N/A   Overcast
1:55 AM 39.0 °F - 38.8 °F 99% 29.69 in 9.0 mi Calm Calm - 0.00 in   Overcast
2:55 AM 39.2 °F 37.0 °F 39.0 °F 99% 29.67 in 10.0 mi WNW 3.5 mph - N/A   Overcast
3:12 AM 39.2 °F - 39.2 °F 100% 29.67 in 10.0 mi Calm Calm - N/A   Overcast
3:38 AM 39.2 °F - 39.2 °F 100% 29.66 in 10.0 mi Calm Calm - N/A   Overcast
3:39 AM 39.2 °F - 39.2 °F 100% 29.66 in 10.0 mi Calm Calm - N/A   Overcast
3:43 AM 39.2 °F - 39.2 °F 100% 29.65 in 10.0 mi Calm Calm - N/A   Overcast
3:48 AM 39.2 °F - 39.2 °F 100% 29.65 in 10.0 mi Calm Calm - N/A   Overcast
3:55 AM 39.6 °F - 39.2 °F 99% 29.65 in 10.0 mi Calm Calm - N/A   Overcast
3:56 AM 39.2 °F - 39.2 °F 100% 29.65 in 10.0 mi Calm Calm - N/A   Overcast
3:59 AM 39.2 °F - 39.2 °F 100% 29.65 in 10.0 mi Calm Calm - N/A   Light Drizzle
4:11 AM 39.2 °F - 39.2 °F 100% 29.64 in 9.0 mi Calm Calm - N/A   Light Drizzle
4:55 AM 39.4 °F 37.2 °F 39.2 °F 99% 29.62 in 9.0 mi West 3.5 mph - 0.01 in Rain Light Rain
5:14 AM 39.2 °F 35.9 °F 39.2 °F 100% 29.63 in 10.0 mi West 4.6 mph - N/A   Overcast
5:55 AM 38.7 °F 34.3 °F 38.3 °F 99% 29.63 in 10.0 mi West 5.8 mph - 0.01 in   Mostly Cloudy
6:55 AM 37.9 °F 34.4 °F 37.8 °F 99% 29.63 in 10.0 mi WNW 4.6 mph - N/A   Mostly Cloudy
7:55 AM 37.6 °F 34.0 °F 37.2 °F 99% 29.63 in 10.0 mi West 4.6 mph - N/A   Scattered Clouds
8:55 AM 39.0 °F 35.7 °F 38.8 °F 99% 29.65 in 10.0 mi West 4.6 mph - N/A   Overcast
9:55 AM 41.2 °F 37.3 °F 38.1 °F 89% 29.65 in 10.0 mi West 5.8 mph - N/A   Clear
10:55 AM 47.7 °F - 36.7 °F 66% 29.65 in 10.0 mi WNW 8.1 mph - N/A   Clear
11:55 AM 52.7 °F - 31.8 °F 45% 29.61 in 10.0 mi NW 9.2 mph - N/A   Clear
12:55 PM 54.7 °F - 29.7 °F 38% 29.58 in 10.0 mi NW 6.9 mph - N/A   Clear
1:55 PM 56.1 °F - 24.4 °F 29% 29.57 in 10.0 mi Variable 5.8 mph - N/A   Clear
2:55 PM 57.2 °F - 19.9 °F 24% 29.57 in 10.0 mi West 6.9 mph - N/A   Clear
3:55 PM 55.9 °F - 22.5 °F 27% 29.59 in 10.0 mi WNW 9.2 mph - N/A   Clear
4:55 PM 53.2 °F - 24.3 °F 32% 29.60 in 10.0 mi WNW 6.9 mph - N/A   Clear
5:55 PM 48.9 °F - 25.0 °F 39% 29.61 in 10.0 mi West 3.5 mph - N/A   Clear
6:55 PM 48.2 °F - 27.7 °F 45% 29.62 in 10.0 mi WNW 5.8 mph - N/A   Clear
7:55 PM 45.1 °F 39.5 °F 32.5 °F 61% 29.65 in 10.0 mi NW 11.5 mph - N/A   Clear
8:55 PM 39.7 °F 30.6 °F 33.8 °F 79% 29.69 in 10.0 mi NW 18.4 mph 27.6 mph N/A   Scattered Clouds
9:05 PM 39.2 °F 30.5 °F 33.8 °F 81% 29.69 in 10.0 mi NW 16.1 mph - N/A   Mostly Cloudy
9:55 PM 39.0 °F 31.4 °F 33.8 °F 82% 29.71 in 10.0 mi NW 12.7 mph 20.7 mph N/A   Overcast
10:22 PM 37.4 °F 28.9 °F 33.8 °F 87% 29.72 in 10.0 mi NNW 13.8 mph - N/A   Overcast
10:43 PM 35.6 °F 24.8 °F 30.2 °F 81% 29.74 in 10.0 mi NW 19.6 mph 26.5 mph N/A   Overcast
10:45 PM 35.6 °F 25.5 °F 30.2 °F 81% 29.74 in 10.0 mi NW 17.3 mph 26.5 mph N/A   Overcast
10:55 PM 34.7 °F 25.5 °F 30.2 °F 84% 29.74 in 10.0 mi NW 13.8 mph 21.9 mph N/A   Overcast
11:55 PM 30.6 °F 20.2 °F 26.8 °F 86% 29.76 in 10.0 mi WNW 13.8 mph 24.2 mph N/A   Overcast